Empire, Alabama
Current Conditions -  °F | °C
As of 11:15 PM on Saturday 25 Oct 2014 (Local Time) from KJFX Reporting Station
Moderate Fog Moderate Fog  
Wind Chill: 57°   Ceiling: 200
Heat Index: 57°   Visibility: 0.25mi
Dew Point: 55°   Wind: 0mph
Humidity: 94%   Direction: NA
Pressure: 30.07"   Gusts: NA
Location:  33.81°N, 87.01°W
Report Text: KJFX 260415Z AUTO 00000KT 1/4SM FG VV002 14/13 A3007 RMK A02 P-128
Loading
Personal Weather Stations






























Interactive Weather Map
Tropical Storm Tracking
New forecast layout! Learn more

10-Day Weather Forecast

Advertisements
Track Severe Weather on mobile